Wind_Speed
24 24 21 19 16 12 11 12 11 11 10 10 9 10 9 6 3 2 4 8 11 14 14 13 11 10 8 8 7 7 6 6 7 9 11 13 16 19
25 25 23 20 17 14 12 11 11 12 11 11 12 13 11 8 4 3 6 10 13 15 16 14 11 9 7 6 5 6 5 6 8 10 12 14 17 19
27 27 25 23 21 18 17 15 14 14 13 12 13 14 14 11 7 6 9 12 14 15 16 15 11 8 6 6 6 7 6 7 9 11 14 15 18 20
28 30 29 27 24 21 20 18 16 15 13 12 13 14 13 11 8 7 8 11 14 15 16 17 12 9 7 7 7 8 7 8 10 12 13 15 17 20
27 28 29 29 26 25 23 19 17 14 12 11 12 14 14 12 10 8 8 10 14 17 16 17 14 10 10 10 9 9 8 10 11 11 13 16 18 20
27 25 25 25 25 24 24 21 19 16 13 11 11 14 14 12 11 10 11 12 15 17 17 18 16 11 11 11 11 10 10 11 11 11 13 16 19 21
26 24 23 23 23 23 22 21 20 18 15 13 10 11 10 11 11 12 15 16 17 19 19 19 18 14 11 11 12 12 11 11 12 12 14 17 19 21
26 24 24 24 24 23 22 22 23 22 19 16 14 13 12 12 11 10 12 15 18 21 23 20 18 17 14 13 13 13 13 14 14 15 16 18 20 21
23 22 21 22 23 23 23 24 24 25 24 21 18 16 15 15 14 13 13 13 15 17 20 22 21 20 18 17 17 16 15 17 17 17 17 19 21 22
20 20 20 21 22 23 24 26 26 26 25 24 22 20 20 20 19 16 14 14 13 14 16 19 23 24 23 21 21 20 18 18 20 20 20 19 21 22
22 22 22 22 22 23 24 27 28 28 28 27 25 24 23 23 23 21 19 17 17 17 19 20 22 26 28 27 26 25 23 22 21 21 20 20 19 20
26 26 26 26 26 26 27 28 30 31 31 30 28 27 26 25 25 24 22 21 20 20 20 20 21 24 28 30 31 29 27 25 24 23 22 22 21 19
30 31 31 30 29 29 29 29 29 30 32 31 29 27 26 26 25 24 23 22 23 23 23 22 21 22 25 30 33 32 30 28 27 26 25 24 23 22
35 35 35 34 32 32 31 30 29 29 30 29 28 27 26 26 25 25 26 26 27 27 27 27 25 24 25 29 34 35 34 32 31 29 27 26 25 24
37 38 38 36 34 34 33 32 30 30 30 28 27 26 26 25 25 24 24 25 25 26 27 28 27 26 25 25 27 31 33 34 34 32 31 30 28 26
37 39 39 38 36 36 35 34 33 33 32 31 29 29 28 28 27 26 25 25 25 25 26 28 29 28 27 26 26 26 26 27 29 31 33 34 32 30
36 37 38 38 38 38 38 38 37 37 36 35 34 33 33 32 32 30 29 28 28 28 28 28 29 29 29 29 30 30 29 28 25 25 26 29 31 32
38 38 40 41 41 42 42 41 41 40 40 39 38 37 36 36 36 35 34 33 32 32 32 32 32 31 31 31 32 32 33 33 32 29 26 26 26 28
43 43 43 44 46 47 47 46 44 43 43 42 42 42 42 41 40 39 38 36 36 35 36 36 36 35 36 36 34 34 34 34 35 34 32 29 27 27
44 45 46 46 46 47 48 48 48 47 45 43 42 43 44 44 42 41 40 40 39 39 39 39 40 40 40 39 39 38 38 37 36 35 34 32 30 29
50 49 48 47 46 45 46 47 47 46 45 44 43 43 44 44 44 43 43 44 44 43 43 42 42 44 45 44 42 42 42 41 39 38 36 35 35 33
48 49 49 49 48 47 46 46 46 46 46 46 46 46 45 45 45 45 45 46 47 48 47 46 46 47 48 47 45 45 45 45 44 42 40 39 37 37
45 45 46 47 48 47 46 46 47 48 48 49 49 50 49 48 47 47 47 48 49 50 51 50 51 51 51 50 50 49 48 48 47 46 45 43 41 40
Wind_Direction
277 275 269 267 272 271 269 273 268 261 259 256 257 270 286 277 269 222 189 174 167 159 157 163 176 195 221 236 246 262 274 291 304 313 320 324 330 332
270 270 265 262 261 259 263 269 270 268 266 266 268 273 272 278 280 227 191 178 176 178 179 182 190 203 215 236 258 278 287 301 311 317 320 324 330 333
265 264 262 262 260 258 262 268 271 270 265 267 271 269 267 265 266 231 210 200 198 201 201 199 206 211 217 246 263 278 284 295 304 311 319 325 331 336
265 263 259 259 260 259 263 264 266 264 255 260 264 264 270 267 265 243 228 221 216 214 214 212 217 227 237 255 260 271 278 286 293 304 319 327 333 338
264 260 258 257 258 257 258 258 257 256 248 243 255 260 267 263 266 259 243 236 229 222 219 215 222 233 243 251 255 265 277 286 292 304 321 330 337 341
254 253 254 254 254 254 255 254 252 249 243 239 247 251 251 252 262 274 269 258 240 230 227 223 228 242 247 249 256 265 275 284 289 300 317 328 334 339
249 250 252 253 254 255 254 252 249 246 243 239 237 223 231 245 260 280 282 274 256 240 236 233 230 238 242 245 254 260 267 276 283 292 307 318 325 332
250 251 252 251 251 253 254 253 249 247 245 244 240 230 228 231 242 265 279 278 269 258 250 241 232 237 243 246 252 256 260 268 275 284 297 307 314 323
246 245 246 248 249 250 251 253 252 249 246 244 242 241 240 238 240 247 254 260 266 266 261 253 240 238 244 250 255 256 258 264 272 280 291 300 307 316
246 245 245 246 247 248 249 249 249 248 247 244 242 242 246 250 249 248 247 246 249 252 259 258 248 240 241 248 255 260 262 267 274 280 287 296 306 313
252 254 253 252 252 251 250 248 247 246 245 243 242 241 244 248 249 249 249 247 243 247 254 257 255 247 244 246 254 259 260 263 270 273 281 293 301 308
256 258 258 257 258 259 256 251 247 246 243 241 239 239 239 241 243 244 245 246 244 242 248 254 256 253 250 249 251 254 257 260 264 268 276 286 290 296
255 255 255 255 256 256 255 252 249 246 244 241 241 242 243 243 245 246 244 245 246 246 247 250 254 258 257 255 255 253 252 255 260 266 270 276 281 287
252 253 253 253 253 253 252 251 250 248 246 244 244 245 247 249 251 253 254 253 253 254 254 255 256 259 263 260 257 256 253 251 255 260 266 270 276 283
251 251 251 250 250 250 250 250 248 246 244 243 243 244 245 246 247 249 253 256 258 260 262 263 263 263 263 262 257 257 259 259 257 258 260 264 268 271
249 250 251 250 249 248 248 247 245 244 245 244 243 244 245 246 246 247 249 254 258 261 264 265 266 266 265 262 258 257 261 263 262 259 259 260 261 262
253 253 252 250 249 248 247 247 248 248 249 249 248 247 247 249 249 248 249 252 255 259 261 262 263 265 267 266 262 259 258 259 262 264 263 261 257 256
255 256 256 255 253 251 249 249 249 250 252 253 253 251 250 250 250 250 251 254 257 260 262 262 262 263 265 266 266 264 262 260 259 260 262 264 262 254
258 258 259 259 259 257 256 255 255 254 253 255 256 257 255 254 253 253 254 255 257 258 260 261 262 261 262 263 263 264 265 265 263 261 260 259 261 257
262 260 259 258 258 258 258 259 259 259 259 260 261 261 261 259 258 258 258 258 258 257 258 259 261 261 260 260 262 262 263 264 263 263 261 257 254 253
266 266 263 260 259 260 261 261 260 260 261 263 264 265 266 266 265 264 263 262 261 260 259 259 259 258 257 256 256 258 260 261 262 261 260 257 253 250
267 267 265 265 265 267 269 270 270 270 270 270 270 270 270 269 268 266 265 264 263 262 260 259 257 255 254 252 253 255 258 259 260 259 256 254 252 248
265 265 265 264 264 264 265 265 267 268 269 269 270 271 270 269 267 265 262 261 261 261 259 258 256 254 252 251 251 252 254 256 258 258 256 252 249 247
Height
5828 5827 5827 5825 5824 5825 5825 5824 5824 5823 5822 5821 5820 5821 5820 5818 5817 5817 5816 5817 5818 5819 5821 5824 5826 5829 5830 5831 5831 5830 5830 5828 5827 5827 5825 5823 5820 5816
5821 5822 5822 5822 5821 5821 5820 5820 5820 5819 5818 5817 5817 5817 5818 5817 5816 5815 5816 5816 5818 5820 5823 5825 5827 5828 5829 5829 5829 5828 5827 5826 5825 5824 5823 5820 5817 5812
5815 5816 5817 5817 5817 5817 5817 5817 5816 5815 5814 5813 5813 5814 5814 5815 5815 5815 5815 5816 5817 5820 5822 5824 5826 5827 5827 5828 5827 5826 5825 5824 5823 5822 5820 5817 5814 5809
5808 5809 5811 5811 5812 5812 5812 5812 5812 5811 5810 5809 5809 5810 5811 5812 5813 5814 5813 5814 5816 5817 5819 5822 5824 5824 5825 5825 5824 5824 5823 5822 5821 5819 5817 5815 5811 5806
5800 5802 5803 5805 5806 5806 5806 5807 5808 5807 5806 5805 5805 5806 5808 5809 5811 5811 5812 5812 5813 5814 5816 5818 5820 5821 5822 5822 5822 5821 5820 5820 5819 5817 5815 5812 5809 5804
5793 5795 5796 5798 5799 5800 5800 5801 5803 5803 5803 5802 5802 5803 5804 5806 5807 5808 5809 5809 5810 5811 5813 5814 5816 5818 5819 5819 5819 5819 5818 5817 5816 5815 5813 5810 5806 5802
5786 5788 5790 5791 5793 5794 5794 5796 5798 5799 5799 5798 5798 5798 5799 5801 5803 5804 5804 5805 5806 5807 5808 5810 5812 5814 5815 5815 5815 5815 5815 5814 5814 5813 5810 5807 5804 5800
5779 5781 5783 5784 5786 5787 5788 5790 5792 5794 5794 5794 5794 5795 5795 5796 5798 5799 5800 5800 5801 5803 5803 5805 5807 5809 5810 5811 5811 5811 5811 5810 5810 5809 5807 5805 5802 5798
5773 5774 5775 5777 5779 5781 5782 5784 5785 5787 5789 5789 5790 5791 5793 5793 5794 5794 5795 5796 5796 5797 5799 5800 5802 5803 5804 5806 5807 5807 5807 5807 5806 5806 5804 5802 5799 5796
5766 5768 5769 5770 5772 5774 5776 5778 5780 5781 5783 5783 5784 5785 5787 5789 5790 5790 5790 5790 5791 5792 5794 5796 5797 5797 5798 5800 5801 5802 5803 5803 5802 5801 5801 5799 5797 5794
5759 5760 5762 5763 5765 5767 5769 5771 5773 5775 5776 5777 5778 5779 5780 5782 5784 5785 5785 5785 5786 5787 5789 5790 5791 5791 5792 5794 5795 5796 5797 5797 5797 5797 5796 5795 5793 5791
5751 5752 5754 5756 5757 5759 5760 5762 5765 5767 5769 5771 5772 5772 5773 5775 5777 5778 5779 5780 5780 5781 5782 5783 5784 5785 5785 5787 5788 5789 5790 5791 5791 5791 5791 5791 5789 5788
5742 5743 5745 5747 5748 5749 5751 5753 5755 5758 5760 5762 5764 5765 5766 5767 5769 5771 5772 5773 5774 5775 5776 5776 5777 5777 5778 5778 5779 5781 5783 5783 5784 5784 5785 5785 5785 5784
5732 5732 5734 5736 5738 5740 5742 5744 5745 5748 5750 5752 5754 5756 5758 5760 5762 5763 5764 5765 5766 5767 5768 5769 5769 5770 5770 5770 5770 5771 5773 5775 5776 5778 5779 5779 5779 5779
5721 5722 5723 5725 5728 5730 5732 5734 5736 5739 5741 5743 5744 5746 5749 5751 5753 5754 5756 5757 5758 5759 5760 5760 5761 5761 5761 5761 5761 5762 5764 5765 5767 5769 5770 5771 5772 5772
5710 5712 5713 5715 5717 5720 5722 5724 5726 5729 5731 5732 5734 5736 5739 5741 5743 5744 5746 5747 5748 5750 5751 5752 5752 5752 5753 5753 5754 5754 5755 5756 5757 5759 5760 5762 5763 5765
5700 5702 5703 5705 5706 5708 5711 5713 5715 5718 5720 5722 5724 5726 5728 5730 5732 5734 5735 5736 5738 5739 5741 5743 5744 5744 5744 5745 5746 5746 5747 5748 5749 5750 5750 5751 5753 5755
5689 5690 5692 5693 5694 5696 5697 5700 5703 5705 5708 5710 5712 5714 5716 5718 5720 5722 5723 5725 5727 5728 5730 5731 5733 5734 5735 5735 5737 5737 5738 5739 5740 5741 5742 5743 5744 5746
5677 5678 5679 5681 5682 5683 5684 5687 5690 5692 5695 5697 5699 5701 5702 5704 5707 5708 5710 5712 5714 5716 5717 5719 5721 5722 5724 5725 5726 5727 5728 5729 5730 5732 5733 5735 5736 5737
5664 5665 5666 5667 5668 5669 5670 5673 5676 5678 5681 5683 5685 5687 5689 5690 5691 5693 5695 5697 5699 5701 5703 5706 5708 5710 5711 5713 5714 5715 5717 5718 5720 5721 5723 5725 5726 5728
5649 5650 5651 5652 5654 5656 5658 5660 5662 5664 5666 5667 5670 5672 5674 5676 5677 5678 5680 5682 5683 5685 5687 5690 5693 5696 5698 5700 5701 5702 5704 5706 5708 5710 5712 5713 5715 5718
5633 5634 5635 5637 5639 5642 5645 5646 5648 5650 5651 5652 5653 5656 5659 5661 5663 5664 5665 5666 5668 5669 5671 5673 5676 5679 5682 5685 5687 5689 5691 5693 5695 5697 5699 5702 5703 5706
5617 5618 5619 5621 5623 5626 5629 5631 5632 5634 5635 5637 5638 5640 5642 5645 5648 5649 5651 5651 5652 5654 5655 5657 5659 5661 5664 5668 5671 5674 5677 5679 5682 5684 5686 5689 5691 5693